This demonstration page uses our WeatherBlox Daily Observations layout. Learn more.

Left ArrowRight Arrow

Hourly Observations for December 7, 2022

Temp ( °F °C ) Dew Point ( °F °C ) Humidity (%) Winds ( mph kmh ) Pressure ( in mb ) Visibility ( mi km ) Precip ( " mm )
12:16 am 00:16 Cloudy with Rain 48 8.9 45 7.2 89 89 VRB 7 11 30.33 1027 3 5 0.07 1.78
12:27 am 00:27 Cloudy with Rain 48 8.9 45 7.2 89 89 VRB 5 7 30.33 1027 4 6 0.11 2.79
12:52 am 00:52 Cloudy with Light Rain 48 8.9 45 7.2 89 89 VRB 5 7 30.32 1027 7 11 0.14 3.56
1:06 am 01:06 Cloudy with Light Rain 49 9.4 45 7.2 86 86 VRB 3 6 30.30 1026 6 10 0.01 0.25
1:34 am 01:34 Cloudy with Light Rain 49 9.4 45 7.2 86 86 SE 5 7 30.30 1026 4 6 0.03 0.76
1:52 am 01:52 Cloudy with Light Rain 49 9.4 45 7.2 86 86 VRB 5 7 30.31 1027 7 11 0.05 1.27
2:52 am 02:52 Cloudy with Rain 49 9.4 46 7.8 90 90 S 10 17 30.30 1026 6 10 0.02 0.51
3:30 am 03:30 Cloudy with Rain 48 8.9 45 7.2 89 89 undefined N/A 30.28 1025 5 8 0.09 2.29
4:00 am 04:00 Cloudy with Light Rain 49 9.4 45 7.2 86 86 VRB 3 6 30.26 1025 6 10 0.01 0.25
4:13 am 04:13 Cloudy with Light Rain 49 9.4 46 7.8 90 90 SSE 8 13 30.26 1025 7 11 0.01 0.25
4:20 am 04:20 Cloudy with Rain 49 9.4 45 7.2 86 86 SSE 10 17 30.25 1024 4 6 0.02 0.51
4:30 am 04:30 Cloudy with Rain 49 9.4 46 7.8 90 90 SSE 8 13 30.25 1024 3 5 0.05 1.27
4:52 am 04:52 Cloudy with Light Rain 49 9.4 46 7.8 90 90 SSE 7 11 30.26 1025 4 6 0.07 1.78
5:02 am 05:02 Cloudy with Light Rain 49 9.4 46 7.8 90 90 SSE 8 13 30.24 1024 10 16 0.01 0.13
5:13 am 05:13 Cloudy with Light Rain 49 9.4 46 7.8 90 90 SSE 6 9 30.24 1024 7 11 0.01 0.13
5:34 am 05:34 Cloudy with Light Rain 49 9.4 46 7.8 90 90 VRB 6 9 30.24 1024 3 5 0.02 0.51
5:52 am 05:52 Cloudy with Light Rain 49 9.4 46 7.8 90 90 S 10 17 30.25 1024 5 8 0.03 0.76
6:25 am 06:25 Cloudy with Light Rain 49 9.4 46 7.8 90 90 SSE 6 9 30.22 1023 6 10 0.02 0.51
6:52 am 06:52 Cloudy with Light Rain 50 10 46 7.8 86 86 SSE 6 9 30.24 1024 6 10 0.03 0.76
7:22 am 07:22 Cloudy with Light Rain 50 10 46 7.8 86 86 VRB 7 11 30.22 1023 7 11 0.02 0.51
7:42 am 07:42 Cloudy with Mist and Fog 50 10 47 8.3 89 89 Calm 30.22 1023 4 6 0.02 0.51
7:50 am 07:50 Cloudy with Mist and Fog 50 10 46 8 87 87 VRB 6 9 30.22 1023 3 4 0.02 0.51
7:52 am 07:52 Cloudy with Light Rain 50 10 47 8.3 89 89 S 7 11 30.24 1024 2 3 0.02 0.51
7:59 am 07:59 Cloudy with Light Rain 50 10 47 8.3 89 89 SSE 6 9 30.22 1023 3 4 0.01 0.13
8:08 am 08:08 Cloudy with Mist and Fog 50 10 48 8.9 93 93 SSE 6 9 30.22 1023 3 5 0.01 0.13
8:18 am 08:18 Cloudy with Mist and Fog 51 10.6 48 8.9 89 89 S 7 11 30.22 1023 3 4 0.01 0.13
8:48 am 08:48 Cloudy with Mist and Fog 52 11 48 9 87 87 S 8 13 30.21 1023 3 5 0.01 0.25
8:52 am 08:52 Cloudy with Mist and Fog 51 10.6 49 9.4 92 92 S 6 9 30.22 1024 3 5 0.01 0.25
9:09 am 09:09 Cloudy with Mist and Fog 52 11.1 49 9.4 89 89 VRB 6 9 30.21 1023 3 4 0.00 0.00
9:18 am 09:18 Cloudy with Mist and Fog 52 11.1 49 9.4 89 89 VRB 5 7 30.21 1023 2 3 0.00 0.00
9:28 am 09:28 Cloudy with Mist and Fog 52 11.1 49 9.4 89 89 VRB 3 6 30.21 1023 2 3 0.00 0.00
9:52 am 09:52 Cloudy with Mist and Fog 52 11.1 49 9.4 89 89 S 5 7 30.22 1023 2 3 0.00 0.00
10:20 am 10:20 Cloudy with Mist and Fog 53 11.7 50 10 89 89 S 3 6 30.19 1022 2 3 0.00 0.00
10:33 am 10:33 Cloudy with Mist and Fog 53 11.7 50 10 89 89 S 3 6 30.18 1022 3 4 0.00 0.00
10:50 am 10:50 Cloudy with Mist and Fog 54 12 52 11 94 94 Calm 30.18 1022 2 3 0.00 0.00
10:52 am 10:52 Cloudy with Mist and Fog 53 11.7 51 10.6 93 93 Calm 30.20 1023 2 3 0.00 0.00
11:03 am 11:03 Cloudy with Mist and Fog 53 11.7 51 10.6 93 93 Calm 30.16 1021 2 3 0.00 0.00
11:52 am 11:52 Cloudy with Mist and Fog 54 12.2 52 11.1 93 93 S 3 6 30.17 1022 1 2 0.00 0.00
11:59 am 11:59 Cloudy with Mist and Fog 54 12.2 52 11.1 93 93 SSE 3 6 30.14 1021 1 2 0.00 0.00
12:32 pm 12:32 Cloudy with Mist and Fog 54 12.2 52 11.1 93 93 Calm 30.13 1020 1 1 0.00 0.00
12:43 pm 12:43 Cloudy with Mist and Fog 54 12.2 52 11.1 93 93 Calm 30.12 1020 1 2 0.00 0.00
12:52 pm 12:52 Cloudy with Mist and Fog 54 12.2 53 11.7 97 97 Calm 30.14 1021 1 2 0.00 0.00
1:07 pm 13:07 Cloudy with Mist and Fog 55 12.8 53 11.7 93 93 Calm 30.11 1020 2 3 0.00 0.00
1:15 pm 13:15 Cloudy with Mist and Fog 55 12.8 53 11.7 93 93 Calm 30.11 1020 1 2 0.00 0.00
1:25 pm 13:25 Cloudy with Mist and Fog 54 12.2 52 11.1 93 93 Calm 30.11 1020 1 1 0.00 0.00
1:43 pm 13:43 Cloudy with Light Rain 54 12.2 52 11.1 93 93 Calm 30.11 1020 1 2 0.02 0.51
1:52 pm 13:52 Cloudy with Light Rain 54 12.2 52 11.1 93 93 Calm 30.13 1020 1 2 0.03 0.76
2:03 pm 14:03 Cloudy with Light Rain 54 12.2 52 11.1 93 93 Calm 30.10 1019 2 2 0.01 0.13
2:16 pm 14:16 Cloudy with Light Rain 55 12.8 53 11.7 93 93 Calm 30.10 1019 1 2 0.01 0.25
2:21 pm 14:21 Cloudy with Light Rain 56 13.3 54 12.2 93 93 Calm 30.10 1019 2 3 0.02 0.51
2:29 pm 14:29 Cloudy with Light Rain 55 12.8 53 11.7 93 93 SW 3 6 30.10 1019 3 5 0.03 0.76
2:52 pm 14:52 Cloudy 56 13.3 54 12.2 93 93 S 3 6 30.11 1020 10 16 0.04 1.02
3:25 pm 15:25 Cloudy with Mist and Fog 56 13.3 54 12.2 93 93 S 5 7 30.07 1018 5 8 0.00 0.00
3:52 pm 15:52 Cloudy with Mist and Fog 56 13.3 54 12.2 93 93 S 5 7 30.09 1019 2 3 0.00 0.00
4:13 pm 16:13 Cloudy with Mist and Fog 56 13.3 54 12.2 93 93 S 3 6 30.05 1018 3 5 0.00 0.00
4:52 pm 16:52 Cloudy with Mist and Fog 56 13.3 54 12.2 93 93 Calm 30.06 1018 3 5 0.00 0.00
5:52 pm 17:52 Cloudy with Mist and Fog 56 13.3 54 12.2 93 93 SW 3 6 30.06 1018 3 4 0.00 0.00
6:08 pm 18:08 Cloudy with Mist and Fog 56 13.3 54 12.2 93 93 SSW 3 6 30.02 1017 3 4 0.00 0.00
6:34 pm 18:34 Cloudy with Mist and Fog 56 13.3 54 12.2 93 93 S 5 7 30.01 1016 3 5 0.00 0.00
6:52 pm 18:52 Cloudy with Mist and Fog 56 13.3 54 12.2 93 93 S 5 7 30.04 1017 3 5 0.00 0.00
7:08 pm 19:08 Cloudy with Mist and Fog 56 13.3 54 12.2 93 93 Calm 30.02 1017 3 4 0.00 0.00
7:52 pm 19:52 Cloudy with Mist and Fog 56 13.3 54 12.2 93 93 SW 5 7 30.04 1017 3 4 0.00 0.00
8:01 pm 20:01 Cloudy with Mist and Fog 56 13.3 54 12.2 93 93 SW 7 11 30.02 1017 3 5 0.00 0.00
8:52 pm 20:52 Cloudy 56 13.3 54 12.2 93 93 Calm 30.04 1017 9 14 0.00 0.00
9:11 pm 21:11 Cloudy 56 13.3 54 12.2 93 93 S 5 7 30.02 1017 10 16 0.00 0.00
9:52 pm 21:52 Cloudy 56 13.3 53 11.7 90 90 WNW 6 9 30.04 1017 10 16 0.00 0.00
10:01 pm 22:01 Cloudy 56 13.3 52 11.1 87 87 W 6 9 30.02 1017 10 16 0.00 0.00
10:52 pm 22:52 Mostly Cloudy 56 13.3 51 10.6 84 84 W 8 13 30.04 1017 10 16 0.00 0.00
11:52 pm 23:52 Cloudy 55 12.8 51 10.6 86 86 VRB 3 6 30.05 1018 10 16 0.00 0.00

Powered by AerisWeather